Great Bend, NY

11:18 AM EST on February 09, 2016 (GMT -0500)
Wheeler-Sack Army Air Field

Weather History for KGTB - June, 2013

Change the Weather History Date:

Friday, June 28, 2013

  Actual Average Record
Temperature  
Mean Temperature 62 °F -  
Max Temperature 69 °F 75 °F 91 °F (2005)
Min Temperature 56 °F 56 °F 51 °F (2004)
Degree Days  
Heating Degree Days 2    
Growing Degree Days 12 (Base 50)    
Moisture  
Dew Point 62 °F    
Average Humidity 99    
Maximum Humidity 100    
Minimum Humidity 94    
Precipitation  
Precipitation 0.90 in - - ()
Sea Level Pressure  
Sea Level Pressure 29.55 in    
Wind  
Wind Speed 7 mph (NNE)    
Max Wind Speed 14 mph    
Max Gust Speed -    
Visibility 10 miles    
Events Rain    
Averages and records for this station are not official NWS values.
T = Trace of Precipitation, MM = Missing Value Source: NWS Daily Summary

Daily Weather History Graph

Daily Weather History Graph

Search for Another Location

Airport or City:

Trip Planner

Search our weather history database for the weather conditions in past years. The results will help you decide how hot, cold, wet, or windy it might be!

Date:

Astronomy

Jun. 28, 2013 Rise Set
Actual Time 5:22 AM EDT 8:49 PM EDT
Civil Twilight 4:46 AM EDT 9:26 PM EDT
Nautical Twilight 3:58 AM EDT 10:13 PM EDT
Astronomical Twilight 2:57 AM EDT 11:14 PM EDT
Moon No Moon Rise 11:41 AM EDT (6/28)
Length of Visible Light 16h 40m
Length of Day
15h 27m
Waning Gibbous, 66% of the Moon is Illuminated
Jun 28
Waning Gibbous
Jun 30
Last Quarter
Jul 8
New
Jul 15
First Quarter
Jul 22
Full

Hourly Weather History & Observations

Time (EDT) Temp. Dew Point Humidity Pressure Visibility Wind Dir Wind Speed Gust Speed Precip Events Conditions
12:35 AM 69.8 °F 68.0 °F 94% 29.63 in 10.0 mi East 8.1 mph - N/A   Light Drizzle
12:44 AM 68.0 °F 68.0 °F 100% 29.63 in 10.0 mi East 8.1 mph - N/A   Scattered Clouds
12:55 AM 68.0 °F 68.0 °F 100% 29.62 in 10.0 mi East 6.9 mph - N/A   Light Drizzle
12:58 AM 68.5 °F 68.0 °F 98% 29.61 in 10.0 mi East 5.8 mph - 0.00 in   Light Drizzle
1:06 AM 68.0 °F 68.0 °F 100% 29.62 in 10.0 mi East 5.8 mph - N/A   Scattered Clouds
1:11 AM 68.0 °F 68.0 °F 100% 29.62 in 10.0 mi East 5.8 mph - N/A   Light Drizzle
1:29 AM 68.0 °F 68.0 °F 100% 29.61 in 10.0 mi ENE 6.9 mph - N/A   Scattered Clouds
1:58 AM 67.5 °F 67.5 °F 100% 29.59 in 10.0 mi East 9.2 mph - 0.00 in   Partly Cloudy
2:02 AM 68.0 °F 68.0 °F 100% 29.60 in 10.0 mi East 9.2 mph - N/A   Light Drizzle
2:22 AM 68.0 °F 68.0 °F 100% 29.60 in 10.0 mi ESE 5.8 mph - N/A Rain Light Rain
2:27 AM 66.2 °F 66.2 °F 100% 29.60 in 10.0 mi ESE 4.6 mph - N/A Rain Light Rain
2:32 AM 66.2 °F 66.2 °F 100% 29.60 in 9.0 mi ESE 3.5 mph - N/A Rain Light Rain
2:58 AM 66.0 °F 66.0 °F 100% 29.59 in 6.0 mi NE 5.8 mph - 0.07 in Rain Light Rain
3:18 AM 66.2 °F 66.2 °F 100% 29.58 in 10.0 mi NNE 6.9 mph - N/A Rain Light Rain
3:23 AM 66.2 °F 66.2 °F 100% 29.58 in 8.0 mi NNE 6.9 mph - N/A Rain Light Rain
3:38 AM 66.2 °F 66.2 °F 100% 29.57 in 7.0 mi NE 10.4 mph - N/A Rain Light Rain
3:58 AM 65.5 °F 65.5 °F 100% 29.56 in 6.0 mi NNE 11.5 mph - 0.05 in Rain Light Rain
4:58 AM 62.4 °F 62.4 °F 100% 29.55 in 7.0 mi NE 11.5 mph - 0.04 in Rain Light Rain
5:43 AM 60.8 °F 60.8 °F 100% 29.55 in 6.0 mi NE 12.7 mph - N/A Rain Rain
5:58 AM 59.7 °F 59.7 °F 100% 29.55 in 5.0 mi NNE 12.7 mph - 0.14 in Rain Rain
6:58 AM 57.7 °F 57.7 °F 100% 29.55 in 6.0 mi North 9.2 mph - 0.25 in Rain Heavy Rain
7:58 AM 56.8 °F 56.8 °F 100% 29.55 in 8.0 mi NE 13.8 mph - 0.11 in Rain Rain
8:58 AM 56.8 °F 56.8 °F 100% 29.54 in 8.0 mi NNE 11.5 mph - 0.11 in Rain Rain
9:58 AM 57.7 °F 57.7 °F 100% 29.52 in 10.0 mi North 9.2 mph - 0.10 in Rain Rain
10:18 AM 57.2 °F 57.2 °F 100% 29.53 in 10.0 mi NNW 6.9 mph - N/A Rain Light Rain
10:53 AM 57.2 °F 57.2 °F 100% 29.53 in 10.0 mi North 6.9 mph - N/A Rain Light Rain
10:58 AM 57.7 °F 57.7 °F 100% 29.53 in 10.0 mi North 8.1 mph - 0.01 in Rain Light Rain
11:48 AM 59.0 °F 59.0 °F 100% 29.54 in 10.0 mi North 6.9 mph - N/A Rain Light Rain
11:53 AM 59.0 °F 59.0 °F 100% 29.54 in 10.0 mi Variable 2.3 mph - N/A   Light Drizzle
11:58 AM 58.6 °F 58.6 °F 100% 29.54 in 10.0 mi NNW 5.8 mph - 0.01 in   Light Drizzle
12:13 PM 59.0 °F 59.0 °F 100% 29.53 in 10.0 mi NW 6.9 mph - N/A Rain Light Rain
12:18 PM 59.0 °F 59.0 °F 100% 29.54 in 10.0 mi NW 8.1 mph - N/A   Light Drizzle
12:26 PM 59.0 °F 59.0 °F 100% 29.54 in 10.0 mi North 5.8 mph - N/A   Overcast
12:58 PM 58.3 °F 58.3 °F 100% 29.54 in 10.0 mi NNW 5.8 mph - 0.00 in   Overcast
1:33 PM 59.0 °F 59.0 °F 100% 29.55 in 10.0 mi North 4.6 mph - N/A   Overcast
1:35 PM 59.0 °F 59.0 °F 100% 29.55 in 10.0 mi North 4.6 mph - N/A   Light Drizzle
1:40 PM 59.0 °F 59.0 °F 100% 29.55 in 9.0 mi Variable 3.5 mph - N/A   Light Drizzle
1:58 PM 58.8 °F 58.8 °F 100% 29.54 in 10.0 mi NNW 4.6 mph - 0.00 in   Light Drizzle
2:03 PM 59.0 °F 59.0 °F 100% 29.54 in 10.0 mi NNW 4.6 mph - N/A   Light Drizzle
2:28 PM 59.0 °F 59.0 °F 100% 29.54 in 10.0 mi North 4.6 mph - N/A Rain Light Rain
2:44 PM 60.8 °F 60.8 °F 100% 29.54 in 9.0 mi NW 4.6 mph - N/A   Overcast
2:49 PM 60.8 °F 60.8 °F 100% 29.54 in 10.0 mi Variable 5.8 mph - N/A   Overcast
2:58 PM 61.3 °F 61.3 °F 100% 29.54 in 10.0 mi North 5.8 mph - 0.01 in   Overcast
3:03 PM 62.6 °F 62.6 °F 100% 29.53 in 10.0 mi Variable 2.3 mph - N/A   Overcast
3:28 PM 62.6 °F 60.8 °F 94% 29.53 in 10.0 mi North 5.8 mph - N/A   Overcast
3:58 PM 62.8 °F 61.0 °F 94% 29.53 in 10.0 mi NNE 5.8 mph - N/A   Overcast
4:08 PM 62.6 °F 60.8 °F 94% 29.53 in 10.0 mi NNW 6.9 mph - N/A   Overcast
4:18 PM 62.6 °F 60.8 °F 94% 29.53 in 10.0 mi Variable 3.5 mph - N/A   Overcast
4:26 PM 62.6 °F 60.8 °F 94% 29.53 in 10.0 mi NNW 5.8 mph - N/A   Light Drizzle
4:56 PM 62.6 °F 60.8 °F 94% 29.54 in 10.0 mi North 3.5 mph - N/A Rain Light Rain
4:58 PM 62.4 °F 61.2 °F 96% 29.54 in 10.0 mi North 4.6 mph - 0.00 in Rain Light Rain
5:08 PM 62.6 °F 60.8 °F 94% 29.54 in 10.0 mi North 5.8 mph - N/A   Light Drizzle
5:13 PM 62.6 °F 60.8 °F 94% 29.54 in 10.0 mi North 5.8 mph - N/A   Light Drizzle
5:14 PM 62.6 °F 60.8 °F 94% 29.54 in 10.0 mi North 5.8 mph - N/A   Overcast
5:24 PM 62.6 °F 60.8 °F 94% 29.53 in 10.0 mi North 5.8 mph - N/A   Overcast
5:58 PM 62.2 °F 61.7 °F 98% 29.53 in 10.0 mi North 5.8 mph - 0.00 in   Mostly Cloudy
6:43 PM 62.6 °F 60.8 °F 94% 29.51 in 10.0 mi North 5.8 mph - N/A   Mostly Cloudy
6:48 PM 62.6 °F 60.8 °F 94% 29.52 in 10.0 mi NNE 5.8 mph - N/A   Overcast
6:58 PM 61.7 °F 61.0 °F 97% 29.52 in 10.0 mi NE 4.6 mph - N/A   Overcast
7:08 PM 60.8 °F 60.8 °F 100% 29.53 in 10.0 mi NE 8.1 mph - N/A   Overcast
7:43 PM 60.8 °F 60.8 °F 100% 29.54 in 10.0 mi ENE 5.8 mph - N/A   Overcast
7:58 PM 61.5 °F 60.8 °F 97% 29.53 in 10.0 mi NE 5.8 mph - N/A   Overcast
8:33 PM 60.8 °F 60.8 °F 100% 29.53 in 10.0 mi East 2.3 mph - N/A   Overcast
8:58 PM 61.2 °F 60.3 °F 97% 29.52 in 10.0 mi ESE 2.3 mph - N/A   Overcast
9:38 PM 60.8 °F 60.8 °F 100% 29.54 in 10.0 mi Calm Calm - N/A   Overcast
9:58 PM 60.8 °F 60.6 °F 99% 29.54 in 10.0 mi North 2.3 mph - N/A   Overcast
10:28 PM 60.8 °F 60.8 °F 100% 29.54 in 10.0 mi NNW 3.5 mph - N/A   Overcast
10:58 PM 59.9 °F 59.9 °F 100% 29.54 in 10.0 mi NW 2.3 mph - N/A   Overcast
11:08 PM 59.0 °F 59.0 °F 100% 29.53 in 10.0 mi Calm Calm - N/A   Overcast
11:53 PM 59.0 °F 59.0 °F 100% 29.53 in 10.0 mi NNW 2.3 mph - N/A   Light Drizzle
11:58 PM 59.7 °F 59.7 °F 100% 29.53 in 10.0 mi NNW 2.3 mph - 0.00 in   Light Drizzle